QPF
0.00 0.00 0.00 0.00 0.00 0.00 0.00 0.00 0.00 0.00 0.00 0.00 0.00 0.00 0.00 0.00 0.00 0.00 0.00 0.00 0.00 0.00 0.00 0.00 0.00 0.00 0.00 0.00 0.00 0.00 0.00 0.00 0.00 0.00 0.00 0.00 0.00 0.00 0.00 0.00 0.00 0.00 0.00 0.00 0.00
0.00 0.00 0.00 0.00 0.00 0.00 0.00 0.00 0.00 0.00 0.00 0.00 0.00 0.00 0.00 0.00 0.00 0.00 0.00 0.00 0.00 0.00 0.00 0.00 0.00 0.00 0.00 0.00 0.00 0.00 0.00 0.00 0.00 0.00 0.00 0.00 0.00 0.00 0.00 0.00 0.00 0.00 0.00 0.00 0.00
0.00 0.00 0.00 0.00 0.00 0.00 0.00 0.00 0.00 0.00 0.00 0.00 0.00 0.00 0.00 0.00 0.00 0.00 0.00 0.00 0.00 0.00 0.00 0.00 0.00 0.00 0.00 0.00 0.00 0.00 0.00 0.00 0.00 0.00 0.00 0.00 0.00 0.00 0.00 0.00 0.00 0.00 0.00 0.00 0.00
0.00 0.00 0.00 0.00 0.00 0.00 0.00 0.00 0.00 0.00 0.00 0.00 0.00 0.00 0.00 0.00 0.00 0.00 0.00 0.00 0.00 0.00 0.00 0.00 0.00 0.00 0.00 0.00 0.00 0.00 0.00 0.00 0.00 0.00 0.00 0.00 0.00 0.00 0.00 0.00 0.00 0.00 0.00 0.00 0.00
0.00 0.00 0.00 0.00 0.00 0.00 0.00 0.00 0.00 0.00 0.00 0.00 0.00 0.00 0.00 0.00 0.00 0.00 0.00 0.00 0.00 0.00 0.00 0.00 0.00 0.00 0.00 0.00 0.00 0.00 0.00 0.00 0.00 0.00 0.00 0.00 0.00 0.00 0.00 0.00 0.00 0.00 0.00 0.00 0.00
0.00 0.00 0.00 0.00 0.00 0.00 0.00 0.00 0.00 0.00 0.00 0.00 0.00 0.00 0.00 0.00 0.00 0.00 0.00 0.00 0.00 0.00 0.00 0.00 0.00 0.00 0.00 0.00 0.00 0.00 0.00 0.00 0.00 0.00 0.00 0.00 0.00 0.00 0.00 0.00 0.00 0.00 0.00 0.00 0.00
0.00 0.00 0.00 0.00 0.00 0.00 0.00 0.00 0.00 0.00 0.00 0.00 0.00 0.00 0.00 0.00 0.00 0.00 0.00 0.00 0.00 0.00 0.00 0.00 0.00 0.00 0.00 0.00 0.00 0.00 0.00 0.00 0.00 0.00 0.00 0.00 0.00 0.00 0.00 0.00 0.00 0.00 0.00 0.00 0.00
0.00 0.00 0.00 0.00 0.00 0.00 0.00 0.00 0.00 0.00 0.00 0.00 0.00 0.00 0.00 0.00 0.00 0.00 0.00 0.00 0.00 0.00 0.00 0.00 0.00 0.00 0.00 0.00 0.00 0.00 0.00 0.00 0.00 0.00 0.00 0.00 0.00 0.00 0.00 0.00 0.00 0.00 0.00 0.00 0.00
0.00 0.00 0.00 0.00 0.00 0.00 0.00 0.00 0.00 0.00 0.00 0.00 0.00 0.00 0.00 0.00 0.00 0.00 0.00 0.00 0.00 0.00 0.00 0.00 0.00 0.00 0.00 0.00 0.00 0.00 0.00 0.00 0.00 0.00 0.00 0.00 0.00 0.00 0.00 0.00 0.00 0.00 0.00 0.00 0.00
0.00 0.00 0.00 0.00 0.00 0.00 0.00 0.00 0.00 0.00 0.00 0.00 0.00 0.00 0.00 0.00 0.00 0.00 0.00 0.00 0.00 0.00 0.00 0.00 0.00 0.00 0.00 0.00 0.00 0.00 0.00 0.00 0.00 0.00 0.00 0.00 0.00 0.00 0.00 0.00 0.00 0.00 0.00 0.00 0.00
0.00 0.00 0.00 0.00 0.00 0.00 0.00 0.00 0.00 0.00 0.00 0.00 0.00 0.00 0.00 0.00 0.00 0.00 0.00 0.00 0.00 0.00 0.00 0.00 0.00 0.00 0.00 0.00 0.00 0.00 0.00 0.00 0.00 0.00 0.00 0.00 0.00 0.00 0.00 0.00 0.00 0.00 0.00 0.00 0.00
0.00 0.00 0.00 0.00 0.00 0.00 0.00 0.00 0.00 0.00 0.00 0.00 0.00 0.00 0.00 0.00 0.00 0.00 0.00 0.00 0.00 0.00 0.00 0.00 0.00 0.00 0.00 0.00 0.00 0.00 0.00 0.00 0.00 0.00 0.00 0.00 0.00 0.00 0.00 0.00 0.00 0.00 0.00 0.00 0.00
0.00 0.00 0.00 0.00 0.00 0.00 0.00 0.00 0.00 0.00 0.00 0.00 0.00 0.00 0.00 0.00 0.00 0.00 0.00 0.00 0.00 0.00 0.00 0.00 0.00 0.00 0.00 0.00 0.00 0.00 0.00 0.00 0.00 0.00 0.00 0.00 0.00 0.00 0.00 0.00 0.00 0.00 0.00 0.00 0.00
0.00 0.00 0.00 0.00 0.00 0.00 0.00 0.00 0.00 0.00 0.00 0.00 0.00 0.00 0.00 0.00 0.00 0.00 0.00 0.00 0.00 0.00 0.00 0.00 0.00 0.00 0.00 0.00 0.00 0.00 0.00 0.00 0.00 0.00 0.00 0.00 0.00 0.00 0.00 0.00 0.00 0.00 0.00 0.00 0.00
0.00 0.00 0.00 0.00 0.00 0.00 0.00 0.00 0.00 0.00 0.00 0.00 0.00 0.00 0.00 0.00 0.00 0.00 0.00 0.00 0.00 0.00 0.00 0.00 0.00 0.00 0.00 0.00 0.00 0.00 0.00 0.00 0.00 0.00 0.00 0.00 0.00 0.00 0.00 0.00 0.00 0.00 0.00 0.00 0.00
0.00 0.00 0.00 0.00 0.00 0.00 0.00 0.00 0.00 0.00 0.00 0.00 0.00 0.00 0.00 0.00 0.00 0.00 0.00 0.00 0.00 0.00 0.00 0.00 0.00 0.00 0.00 0.00 0.00 0.00 0.00 0.00 0.00 0.00 0.00 0.00 0.00 0.00 0.00 0.00 0.00 0.00 0.00 0.00 0.00
0.00 0.00 0.00 0.00 0.00 0.00 0.00 0.00 0.00 0.00 0.00 0.00 0.00 0.00 0.00 0.00 0.00 0.00 0.00 0.00 0.00 0.00 0.00 0.00 0.00 0.00 0.00 0.00 0.00 0.00 0.00 0.00 0.00 0.00 0.00 0.00 0.00 0.00 0.00 0.00 0.00 0.00 0.00 0.00 0.00
0.00 0.00 0.00 0.00 0.00 0.00 0.00 0.00 0.00 0.00 0.00 0.00 0.00 0.00 0.00 0.00 0.00 0.00 0.00 0.00 0.00 0.00 0.00 0.00 0.00 0.00 0.00 0.00 0.00 0.00 0.00 0.00 0.00 0.00 0.00 0.00 0.00 0.00 0.00 0.00 0.00 0.00 0.00 0.00 0.00
0.00 0.00 0.00 0.00 0.00 0.00 0.00 0.00 0.00 0.00 0.00 0.00 0.00 0.00 0.00 0.00 0.00 0.00 0.00 0.00 0.00 0.00 0.00 0.00 0.00 0.00 0.00 0.00 0.00 0.00 0.00 0.00 0.00 0.00 0.00 0.00 0.00 0.00 0.00 0.00 0.00 0.00 0.00 0.00 0.00
0.00 0.00 0.00 0.00 0.00 0.00 0.00 0.00 0.00 0.00 0.00 0.00 0.00 0.00 0.00 0.00 0.00 0.00 0.00 0.00 0.00 0.00 0.00 0.00 0.00 0.00 0.00 0.00 0.00 0.00 0.00 0.00 0.00 0.00 0.00 0.00 0.00 0.00 0.00 0.00 0.00 0.00 0.00 0.00 0.00
0.00 0.00 0.00 0.00 0.00 0.00 0.00 0.00 0.00 0.00 0.00 0.00 0.00 0.00 0.00 0.00 0.00 0.00 0.00 0.00 0.00 0.00 0.00 0.00 0.00 0.00 0.00 0.00 0.00 0.00 0.00 0.00 0.00 0.00 0.00 0.00 0.00 0.00 0.00 0.00 0.00 0.00 0.00 0.00 0.00
0.00 0.00 0.00 0.00 0.00 0.00 0.00 0.00 0.00 0.00 0.00 0.00 0.00 0.00 0.00 0.00 0.00 0.00 0.00 0.00 0.00 0.00 0.00 0.00 0.00 0.00 0.00 0.00 0.00 0.00 0.00 0.00 0.00 0.00 0.00 0.00 0.00 0.00 0.00 0.00 0.00 0.00 0.00 0.00 0.00
0.00 0.00 0.00 0.00 0.00 0.00 0.00 0.00 0.00 0.00 0.00 0.00 0.00 0.00 0.00 0.00 0.00 0.00 0.00 0.00 0.00 0.00 0.00 0.00 0.00 0.00 0.00 0.00 0.00 0.00 0.00 0.00 0.00 0.00 0.00 0.00 0.00 0.00 0.00 0.00 0.00 0.00 0.00 0.00 0.00
0.00 0.00 0.00 0.00 0.00 0.00 0.00 0.00 0.00 0.00 0.00 0.00 0.00 0.00 0.00 0.00 0.00 0.00 0.00 0.00 0.00 0.00 0.00 0.00 0.00 0.00 0.00 0.00 0.00 0.00 0.00 0.00 0.00 0.00 0.00 0.00 0.00 0.00 0.00 0.00 0.00 0.00 0.00 0.00 0.00
0.00 0.00 0.00 0.00 0.00 0.00 0.00 0.00 0.00 0.00 0.00 0.00 0.00 0.00 0.00 0.00 0.00 0.00 0.00 0.00 0.00 0.00 0.00 0.00 0.00 0.00 0.00 0.00 0.00 0.00 0.00 0.00 0.00 0.00 0.00 0.00 0.00 0.00 0.00 0.00 0.00 0.00 0.01 0.00 0.00
0.00 0.00 0.00 0.00 0.00 0.00 0.00 0.00 0.00 0.00 0.00 0.00 0.00 0.00 0.00 0.00 0.00 0.00 0.00 0.00 0.00 0.00 0.00 0.00 0.00 0.00 0.00 0.00 0.00 0.00 0.00 0.00 0.00 0.00 0.00 0.00 0.00 0.00 0.00 0.00 0.00 0.02 0.01 0.01 0.01
0.00 0.00 0.00 0.00 0.00 0.00 0.00 0.00 0.00 0.00 0.00 0.00 0.00 0.00 0.00 0.00 0.00 0.00 0.00 0.00 0.00 0.00 0.00 0.00 0.00 0.00 0.00 0.00 0.00 0.00 0.00 0.00 0.00 0.00 0.00 0.00 0.00 0.00 0.00 0.00 0.00 0.00 0.00 0.01 0.01
MSLP
1016.40 1016.20 1016.04 1015.87 1015.66 1015.29 1014.94 1014.67 1014.35 1013.97 1013.68 1013.39 1013.02 1012.65 1012.36 1011.90 1011.02 1010.69 1009.01 1007.33 1007.13 1007.16 1007.13 1006.64 1006.33 1006.57 1006.70 1006.62 1006.73 1006.98 1006.82 1006.69 1006.74 1006.90 1006.74 1007.34 1007.61 1008.15 1008.38 1008.68 1009.15 1009.52 1009.81 1010.29 1011.58
1016.26 1016.09 1015.97 1015.80 1015.58 1015.35 1014.99 1014.64 1014.36 1013.98 1013.61 1013.28 1012.95 1012.62 1012.24 1011.80 1010.81 1009.20 1007.46 1007.06 1007.03 1007.02 1006.82 1006.74 1006.45 1006.52 1006.36 1006.55 1006.75 1006.66 1006.68 1006.37 1006.38 1006.57 1006.45 1007.02 1007.39 1007.72 1008.21 1008.46 1009.06 1009.58 1010.30 1010.99 1011.66
1016.12 1015.97 1015.84 1015.68 1015.47 1015.22 1014.94 1014.63 1014.29 1013.95 1013.59 1013.22 1012.84 1012.47 1012.01 1011.51 1010.07 1008.23 1007.44 1007.19 1007.07 1007.12 1007.05 1006.92 1006.73 1006.51 1006.26 1006.47 1006.56 1006.55 1006.35 1006.22 1005.99 1006.16 1006.39 1006.93 1007.39 1007.67 1007.64 1007.69 1007.96 1008.74 1010.06 1010.91 1011.56
1015.94 1015.78 1015.63 1015.52 1015.32 1015.10 1014.85 1014.58 1014.21 1013.90 1013.57 1013.19 1012.73 1012.22 1011.72 1011.00 1009.46 1007.90 1007.63 1007.32 1007.09 1007.03 1007.03 1006.86 1006.50 1006.09 1006.21 1006.17 1006.41 1006.22 1005.91 1005.79 1005.88 1005.91 1006.19 1006.58 1006.99 1007.10 1007.26 1007.15 1007.43 1008.24 1009.46 1010.30 1010.88
1015.77 1015.58 1015.39 1015.26 1015.11 1014.91 1014.73 1014.48 1014.20 1013.82 1013.48 1013.09 1012.65 1012.11 1011.28 1010.19 1008.35 1007.72 1007.60 1007.31 1007.09 1007.03 1006.97 1006.66 1006.42 1006.47 1006.28 1006.36 1006.23 1006.13 1005.76 1005.69 1005.61 1006.03 1006.12 1006.41 1006.49 1006.67 1006.70 1007.21 1007.70 1008.45 1009.33 1009.92 1010.34
1015.51 1015.32 1015.16 1015.02 1014.86 1014.68 1014.53 1014.32 1014.05 1013.70 1013.37 1012.97 1012.57 1012.11 1011.21 1009.25 1007.39 1007.55 1007.52 1007.25 1006.95 1006.83 1006.79 1006.61 1006.66 1006.71 1006.58 1006.48 1006.40 1006.35 1006.09 1005.53 1005.36 1005.61 1005.87 1006.05 1006.20 1006.59 1006.40 1007.07 1007.96 1008.74 1009.00 1009.39 1009.78
1015.26 1015.03 1014.86 1014.71 1014.56 1014.39 1014.26 1014.08 1013.82 1013.51 1013.22 1012.87 1012.56 1012.09 1010.75 1008.15 1007.28 1007.30 1007.26 1006.95 1006.95 1006.84 1006.59 1006.72 1006.81 1006.69 1006.57 1006.44 1006.74 1006.38 1006.03 1005.48 1005.14 1005.48 1005.60 1005.84 1005.97 1005.82 1005.98 1006.74 1007.51 1008.31 1008.97 1009.21 1009.45
1014.97 1014.76 1014.59 1014.40 1014.25 1014.13 1014.05 1013.86 1013.55 1013.26 1013.00 1012.73 1012.53 1011.92 1009.57 1007.38 1007.22 1006.99 1006.87 1006.72 1006.86 1006.93 1006.79 1006.82 1006.88 1006.73 1006.68 1006.88 1006.71 1006.54 1006.44 1005.88 1005.53 1005.64 1005.70 1005.76 1005.14 1005.25 1005.82 1006.45 1006.93 1007.67 1008.29 1008.95 1009.11
1014.74 1014.47 1014.32 1014.14 1014.02 1013.94 1013.85 1013.56 1013.20 1012.90 1012.73 1012.64 1012.38 1011.40 1008.68 1007.27 1007.14 1006.77 1006.63 1006.47 1006.49 1006.76 1006.91 1006.83 1006.82 1007.12 1007.05 1006.85 1006.72 1007.08 1006.59 1006.31 1005.75 1005.64 1005.81 1005.63 1004.83 1005.17 1005.68 1006.19 1006.52 1007.06 1007.64 1008.20 1008.82
1014.56 1014.29 1014.05 1013.91 1013.83 1013.76 1013.53 1013.26 1012.84 1012.62 1012.56 1012.38 1011.81 1011.17 1008.41 1007.62 1007.15 1006.90 1006.80 1006.75 1006.61 1006.73 1006.61 1006.95 1007.25 1007.21 1007.44 1006.96 1007.14 1007.22 1006.79 1006.66 1006.32 1005.74 1005.66 1005.58 1004.84 1004.62 1005.61 1005.90 1005.88 1006.44 1007.02 1007.61 1008.07
1014.42 1014.09 1013.87 1013.78 1013.70 1013.61 1013.06 1012.67 1012.93 1012.55 1011.87 1010.57 1010.20 1009.36 1008.28 1007.68 1007.57 1006.88 1006.74 1006.74 1006.73 1006.57 1006.94 1007.68 1007.33 1007.27 1007.59 1007.56 1007.67 1007.51 1007.23 1006.88 1006.26 1005.87 1005.69 1005.10 1004.82 1004.26 1004.86 1005.26 1005.28 1006.06 1006.63 1006.96 1007.09
1014.21 1013.91 1013.78 1013.61 1013.59 1013.53 1013.38 1012.00 1011.18 1010.96 1010.49 1009.82 1009.65 1009.05 1008.39 1008.04 1007.27 1006.76 1006.68 1006.62 1006.64 1006.94 1007.55 1007.60 1007.38 1007.63 1007.74 1007.57 1007.64 1007.51 1007.12 1006.62 1006.11 1006.00 1005.79 1005.03 1004.24 1004.13 1004.75 1004.72 1004.92 1005.41 1005.94 1006.06 1006.76
1014.09 1013.81 1013.62 1013.56 1013.44 1013.40 1012.48 1011.19 1010.76 1010.57 1010.03 1009.27 1008.86 1008.32 1007.71 1007.71 1006.91 1006.56 1006.59 1006.66 1006.82 1007.20 1007.50 1007.57 1007.59 1007.68 1007.37 1007.37 1007.11 1007.02 1006.80 1006.49 1006.32 1005.96 1005.80 1005.27 1004.32 1004.50 1004.39 1004.59 1004.65 1004.88 1005.25 1005.42 1005.82
1013.91 1013.62 1013.53 1013.38 1013.79 1012.57 1011.57 1010.75 1010.72 1010.59 1009.56 1008.78 1008.12 1007.24 1007.46 1007.10 1006.78 1006.48 1006.49 1006.51 1007.05 1007.34 1007.83 1007.70 1007.55 1007.33 1007.06 1006.73 1006.71 1006.43 1006.55 1006.59 1006.44 1006.17 1005.77 1005.92 1004.85 1004.75 1004.88 1004.63 1004.71 1004.84 1005.01 1005.09 1005.18
1013.76 1013.49 1013.38 1013.42 1012.75 1011.93 1010.90 1010.62 1010.49 1010.20 1008.49 1007.87 1007.25 1006.99 1006.93 1006.71 1006.52 1006.73 1006.68 1006.50 1006.82 1007.26 1007.76 1007.33 1007.16 1007.01 1006.76 1006.35 1006.51 1006.23 1006.49 1006.61 1006.60 1006.31 1006.15 1005.93 1005.53 1004.96 1005.19 1004.77 1004.92 1005.02 1005.03 1004.99 1004.92
1013.49 1013.28 1013.29 1013.26 1012.80 1010.89 1010.60 1010.35 1010.14 1009.13 1007.57 1006.98 1006.63 1006.62 1006.56 1006.54 1006.37 1006.57 1006.45 1006.52 1007.17 1007.21 1007.35 1007.04 1007.06 1006.92 1006.33 1006.17 1006.28 1006.45 1006.53 1006.74 1006.88 1006.53 1006.05 1006.56 1006.49 1005.10 1005.77 1006.25 1005.69 1005.52 1005.28 1005.19 1005.02
1013.03 1012.72 1013.03 1012.19 1011.14 1010.66 1010.47 1009.93 1009.14 1007.60 1007.05 1006.52 1006.10 1006.21 1006.17 1006.28 1006.28 1006.31 1006.43 1006.67 1006.85 1007.08 1006.90 1006.76 1006.45 1006.27 1006.25 1006.15 1006.31 1006.22 1005.98 1006.01 1006.18 1006.23 1006.43 1006.96 1006.75 1005.86 1006.25 1006.46 1006.56 1006.14 1005.79 1005.69 1005.49
1012.73 1012.46 1012.33 1011.61 1011.08 1010.80 1010.07 1009.36 1008.09 1007.04 1006.17 1005.77 1005.65 1005.90 1005.85 1006.00 1006.18 1006.33 1006.51 1006.77 1007.17 1007.07 1006.86 1006.48 1006.25 1006.08 1006.03 1005.79 1005.51 1006.06 1005.87 1006.10 1006.33 1006.60 1006.71 1007.06 1006.35 1006.08 1006.51 1006.58 1006.57 1006.61 1006.47 1006.40 1006.10
1012.67 1012.47 1011.83 1010.72 1010.95 1010.94 1009.65 1008.67 1007.60 1006.76 1006.06 1005.52 1005.49 1005.39 1005.64 1005.82 1005.90 1006.23 1006.36 1006.25 1006.28 1006.63 1006.56 1006.47 1006.09 1006.00 1005.96 1005.90 1006.07 1006.39 1006.55 1007.04 1006.86 1007.81 1007.30 1006.88 1006.69 1006.21 1006.55 1006.55 1006.70 1006.73 1006.71 1006.57 1006.22
1011.97 1011.28 1010.74 1010.38 1010.57 1010.31 1009.25 1008.63 1007.60 1006.84 1006.06 1005.60 1005.05 1005.13 1005.20 1005.64 1005.92 1006.07 1006.24 1006.15 1006.14 1006.31 1006.13 1006.46 1006.30 1006.24 1006.07 1006.25 1006.41 1006.16 1007.07 1007.24 1007.10 1007.08 1006.98 1006.89 1006.80 1006.17 1006.70 1006.76 1007.10 1007.24 1007.18 1007.03 1006.88
1011.28 1010.46 1010.50 1010.44 1010.51 1009.48 1008.96 1008.35 1007.45 1006.50 1006.16 1005.43 1004.99 1005.04 1005.29 1005.64 1005.94 1006.12 1006.37 1006.51 1006.38 1006.52 1006.56 1006.50 1006.65 1006.62 1006.50 1006.69 1006.75 1007.01 1007.09 1007.72 1007.73 1007.87 1007.42 1007.16 1006.82 1007.50 1007.49 1007.76 1007.97 1008.03 1008.04 1007.88 1007.76
1010.81 1010.18 1010.37 1010.36 1009.98 1010.07 1008.96 1008.27 1007.51 1006.35 1005.78 1005.34 1005.07 1004.95 1005.36 1005.95 1006.22 1006.37 1006.42 1006.71 1006.93 1006.75 1006.64 1006.78 1006.65 1006.58 1006.96 1007.61 1007.78 1007.45 1007.41 1007.53 1007.36 1008.01 1008.48 1008.34 1007.79 1008.23 1008.29 1008.44 1008.58 1008.52 1008.77 1008.52 1008.70
1011.00 1010.51 1010.12 1009.80 1009.54 1009.40 1008.82 1008.04 1007.34 1006.42 1005.96 1005.55 1005.35 1005.40 1005.79 1006.22 1006.70 1006.77 1006.82 1007.03 1007.00 1006.91 1006.97 1006.88 1006.95 1007.04 1007.52 1007.95 1007.90 1007.84 1008.07 1008.23 1008.11 1008.27 1008.25 1008.31 1007.96 1008.74 1008.92 1009.01 1009.04 1009.05 1009.03 1009.21 1009.17
1011.15 1010.48 1010.14 1009.88 1009.82 1009.12 1008.59 1007.85 1007.06 1006.55 1006.34 1006.20 1006.01 1005.89 1006.19 1006.71 1006.94 1007.06 1007.07 1007.17 1007.33 1007.47 1007.37 1007.10 1007.10 1006.75 1006.95 1007.32 1007.66 1007.87 1008.15 1008.47 1008.16 1008.07 1007.95 1008.11 1008.17 1008.75 1009.38 1009.57 1009.58 1009.59 1009.77 1009.80 1009.86
1011.35 1010.82 1010.58 1010.00 1009.52 1009.08 1008.76 1008.27 1007.34 1006.76 1006.56 1006.46 1006.35 1006.43 1006.47 1006.92 1007.26 1007.38 1007.52 1007.49 1007.64 1007.81 1007.81 1007.49 1007.28 1007.81 1007.89 1008.10 1008.24 1008.21 1008.21 1008.41 1008.37 1008.41 1008.52 1008.28 1009.03 1009.34 1010.11 1010.59 1010.57 1010.50 1010.59 1010.48 1010.48
1011.91 1011.37 1011.00 1010.31 1009.73 1009.17 1008.89 1008.16 1007.65 1007.37 1007.14 1006.77 1006.63 1007.10 1007.17 1007.24 1007.41 1007.61 1007.92 1008.13 1008.16 1008.04 1008.27 1008.40 1008.32 1008.57 1008.41 1008.53 1008.73 1008.68 1008.62 1008.68 1008.84 1009.10 1009.28 1009.39 1009.48 1010.53 1011.00 1011.24 1011.25 1011.32 1011.27 1011.25 1011.26
1012.97 1012.34 1011.36 1010.75 1009.89 1009.25 1008.79 1008.41 1007.95 1007.70 1007.80 1007.49 1007.51 1007.55 1007.92 1008.31 1008.37 1008.56 1008.70 1008.91 1009.15 1009.17 1009.14 1009.21 1009.11 1009.30 1008.96 1009.46 1009.41 1009.25 1008.96 1009.06 1009.19 1009.70 1009.88 1009.81 1010.31 1011.13 1011.53 1011.81 1011.98 1011.96 1011.96 1011.87 1011.83
Thickness
5731 5735 5739 5743 5748 5753 5758 5762 5766 5771 5776 5781 5786 5791 5794 5800 5808 5812 5817 5837 5843 5846 5848 5850 5852 5845 5843 5834 5837 5832 5805 5794 5798 5798 5807 5817 5807 5812 5814 5799 5799 5801 5802 5803 5796
5730 5734 5738 5742 5747 5751 5755 5761 5765 5770 5775 5780 5785 5788 5794 5799 5807 5813 5837 5843 5845 5846 5842 5835 5832 5835 5829 5827 5827 5818 5799 5801 5817 5816 5813 5815 5812 5809 5803 5798 5794 5797 5801 5799 5794
5728 5732 5737 5741 5745 5750 5754 5759 5763 5768 5773 5778 5783 5787 5794 5799 5806 5817 5837 5840 5843 5844 5844 5841 5836 5831 5822 5825 5822 5817 5802 5816 5822 5826 5825 5814 5809 5814 5805 5798 5808 5800 5796 5795 5791
5726 5731 5735 5740 5744 5748 5753 5757 5762 5766 5770 5776 5781 5787 5794 5801 5783 5825 5835 5839 5843 5844 5840 5834 5832 5823 5815 5812 5822 5810 5824 5825 5826 5829 5823 5814 5818 5811 5811 5815 5824 5818 5808 5801 5794
5724 5729 5734 5739 5744 5748 5752 5756 5760 5765 5769 5774 5779 5786 5796 5795 5805 5831 5834 5838 5842 5841 5831 5829 5823 5818 5810 5815 5821 5815 5824 5829 5832 5825 5825 5824 5816 5814 5815 5824 5824 5816 5808 5802 5800
5723 5728 5734 5738 5743 5748 5752 5755 5759 5764 5768 5773 5778 5784 5791 5784 5830 5832 5834 5837 5839 5837 5833 5833 5825 5826 5816 5816 5815 5821 5821 5828 5833 5829 5827 5819 5820 5819 5825 5827 5816 5809 5808 5808 5804
5722 5728 5734 5739 5743 5748 5752 5756 5760 5764 5768 5773 5777 5783 5787 5802 5831 5833 5836 5837 5840 5838 5830 5836 5835 5826 5826 5817 5823 5823 5813 5826 5831 5828 5824 5827 5811 5814 5833 5829 5819 5812 5807 5808 5808
5722 5728 5734 5739 5744 5748 5752 5756 5761 5764 5768 5773 5777 5783 5787 5827 5831 5834 5838 5836 5842 5842 5839 5841 5839 5831 5826 5826 5820 5809 5810 5796 5822 5823 5826 5825 5803 5828 5835 5827 5822 5819 5813 5808 5810
5722 5728 5734 5739 5744 5748 5752 5757 5762 5766 5770 5773 5778 5783 5791 5829 5822 5834 5839 5831 5837 5838 5839 5841 5836 5818 5820 5807 5802 5797 5785 5790 5805 5825 5820 5818 5814 5829 5833 5828 5824 5823 5819 5814 5810
5722 5728 5734 5739 5744 5748 5753 5758 5764 5768 5771 5774 5780 5778 5805 5805 5822 5830 5837 5835 5828 5828 5826 5822 5815 5808 5803 5804 5773 5780 5788 5790 5789 5817 5818 5811 5816 5836 5829 5828 5829 5827 5824 5818 5816
5722 5729 5735 5739 5744 5748 5755 5763 5764 5765 5771 5782 5786 5790 5802 5817 5824 5825 5834 5828 5827 5822 5800 5802 5799 5789 5794 5798 5797 5793 5788 5784 5800 5816 5810 5813 5815 5831 5835 5832 5833 5826 5825 5823 5823
5723 5729 5735 5740 5744 5748 5753 5767 5773 5779 5774 5786 5787 5793 5805 5812 5805 5819 5833 5814 5811 5796 5798 5796 5787 5800 5801 5800 5793 5788 5786 5792 5807 5811 5808 5814 5820 5834 5830 5834 5837 5833 5829 5829 5825
5723 5730 5735 5740 5744 5749 5760 5771 5779 5783 5773 5785 5791 5796 5806 5811 5807 5812 5824 5814 5803 5793 5791 5784 5794 5801 5801 5796 5794 5791 5790 5792 5793 5807 5809 5808 5813 5815 5834 5836 5839 5841 5841 5839 5833
5725 5731 5736 5741 5746 5756 5765 5776 5779 5783 5768 5778 5788 5804 5807 5813 5804 5825 5827 5818 5800 5791 5787 5789 5800 5798 5798 5797 5799 5789 5801 5798 5795 5793 5784 5801 5784 5810 5817 5826 5833 5838 5838 5839 5840
5727 5733 5738 5741 5754 5761 5773 5777 5782 5782 5746 5784 5791 5816 5810 5806 5810 5809 5825 5817 5795 5793 5791 5789 5793 5794 5791 5800 5802 5798 5804 5797 5793 5790 5788 5793 5790 5811 5815 5821 5825 5832 5837 5841 5843
5730 5736 5739 5743 5749 5769 5774 5779 5781 5763 5743 5777 5794 5793 5795 5801 5804 5808 5811 5820 5810 5796 5794 5795 5805 5801 5805 5809 5807 5805 5798 5790 5785 5785 5775 5777 5778 5803 5800 5800 5816 5828 5835 5837 5841
5734 5741 5742 5751 5767 5770 5775 5777 5757 5754 5781 5774 5782 5790 5791 5788 5794 5798 5794 5791 5784 5769 5773 5789 5796 5807 5809 5798 5803 5801 5796 5770 5766 5766 5763 5777 5774 5795 5804 5812 5814 5818 5828 5832 5836
5737 5743 5748 5756 5764 5769 5776 5767 5745 5767 5774 5792 5788 5787 5783 5788 5789 5788 5784 5779 5783 5783 5773 5770 5770 5797 5807 5804 5803 5794 5799 5772 5741 5752 5765 5773 5774 5794 5807 5815 5819 5820 5823 5824 5828
5736 5742 5751 5763 5763 5767 5770 5747 5755 5767 5782 5783 5786 5779 5778 5786 5788 5784 5782 5784 5793 5791 5771 5767 5775 5804 5805 5808 5805 5788 5783 5788 5768 5752 5754 5768 5781 5803 5805 5808 5811 5813 5816 5818 5825
5743 5752 5758 5762 5764 5767 5761 5739 5759 5773 5784 5785 5775 5783 5773 5779 5780 5782 5777 5791 5790 5796 5806 5786 5770 5792 5801 5805 5804 5803 5792 5775 5771 5744 5739 5762 5762 5781 5785 5796 5799 5800 5804 5810 5817
5746 5754 5755 5759 5761 5764 5744 5751 5762 5782 5784 5781 5782 5779 5781 5778 5780 5776 5776 5787 5795 5791 5797 5793 5780 5780 5792 5783 5783 5785 5780 5766 5769 5756 5746 5741 5762 5780 5781 5785 5784 5788 5792 5797 5803
5746 5743 5751 5755 5749 5733 5745 5753 5762 5776 5788 5786 5791 5790 5785 5779 5774 5775 5776 5782 5792 5795 5783 5792 5784 5767 5771 5780 5780 5782 5775 5775 5761 5744 5739 5740 5752 5774 5779 5780 5780 5782 5781 5788 5788
5739 5739 5750 5754 5737 5739 5744 5754 5764 5772 5777 5781 5783 5788 5785 5776 5769 5774 5778 5789 5791 5791 5785 5787 5772 5755 5755 5768 5775 5769 5766 5761 5761 5755 5737 5732 5748 5764 5766 5767 5773 5772 5776 5775 5777
5736 5733 5739 5742 5737 5743 5743 5748 5757 5774 5772 5775 5777 5784 5777 5769 5771 5767 5773 5782 5784 5782 5777 5786 5771 5772 5759 5762 5767 5757 5757 5754 5759 5744 5742 5743 5748 5757 5752 5752 5757 5760 5761 5762 5761
5728 5728 5729 5732 5738 5740 5743 5741 5750 5758 5771 5773 5771 5770 5772 5762 5761 5758 5764 5772 5777 5773 5774 5779 5763 5757 5758 5757 5755 5756 5755 5750 5746 5748 5734 5745 5732 5744 5740 5735 5738 5743 5742 5744 5744
5721 5724 5723 5726 5729 5736 5728 5740 5746 5753 5759 5763 5765 5761 5764 5762 5764 5755 5760 5759 5758 5770 5762 5762 5747 5747 5747 5750 5746 5742 5750 5746 5742 5735 5731 5731 5730 5730 5728 5728 5727 5725 5726 5725 5726
5703 5709 5718 5713 5725 5733 5735 5739 5746 5753 5755 5760 5759 5760 5755 5753 5757 5755 5755 5751 5748 5748 5749 5749 5743 5735 5731 5729 5730 5724 5741 5739 5735 5729 5726 5719 5725 5719 5713 5711 5710 5710 5710 5708 5709